Home > Weather > Niš > Past weeks

Flag for Serbia Weather for the Past 2 Weeks in Niš, Serbia

Now
45 °F

Light rain. Passing clouds.


Feels Like: 43 °F
Forecast: 38 / 52 °F
Wind: 3 mph from North

Location: Nis Airport

Current Time: Feb 11, 2016 at 7:19:06 PM

Latest Report: Feb 11, 2016 at 7:00 PM


Visibility: N/A

Pressure: 29.86 "Hg

Humidity: 57%

Dew point: 30 °F

Location of NišLocation

Historic Weather in Niš — Graph

°F

Niš Temperature Yesterday

Maximum temperature yesterday: 63 °F (at 12:00 PM)
Minimum temperature yesterday: 39 °F (at 8:30 PM)
Average temperature yesterday: 51 °F

High & Low Weather Summary for the Past Weeks

 TemperatureHumidityPressure
High68 °F (Feb 3, 12:00 PM)100% (Jan 27, 6:00 PM)30.48 "Hg (Jan 27, 6:00 PM)
Low25 °F (Feb 7, 7:00 AM)29% (Feb 7, 3:30 PM)29.42 "Hg (Feb 10, 2:30 PM)
Average45 °F71%30.15 "Hg
* Reported Jan 27 6:00 PM — Feb 11 6:00 PM, Niš, Weather by CustomWeather, © 2016

Note: Actual official high and low records may vary slightly from our data, if they occured in-between our weather recording intervals... More about our weather records

Advertising

Niš Weather History for the Previous 24 Hours

 ConditionsComfort  
Time TempWeatherWind HumidityBarometerVisibility
6:00 PM
Thu, Feb 11
45 °FLight rain. Passing clouds.2 mph57%29.86 "HgN/A
5:30 PM46 °FLight rain. Passing clouds.7 mph53%29.86 "HgN/A
5:00 PM46 °FPassing clouds.3 mph50%29.83 "HgN/A
4:30 PM46 °FScattered clouds.2 mph53%29.83 "HgN/A
4:00 PM45 °FScattered clouds.No wind66%29.83 "HgN/A
3:30 PM45 °FScattered clouds.3 mph76%29.83 "HgN/A
3:00 PM45 °FPassing clouds.2 mph71%29.83 "HgN/A
2:30 PM46 °FPassing clouds.2 mph66%29.83 "HgN/A
2:00 PM46 °FPassing clouds.1 mph62%29.83 "HgN/A
1:30 PM46 °FPassing clouds.No wind66%29.83 "HgN/A
1:00 PM46 °FPassing clouds.No wind66%29.83 "HgN/A
12:30 PM45 °FPassing clouds.1 mph71%29.86 "HgN/A
12:00 PM45 °FPassing clouds.2 mph71%29.86 "HgN/A
11:30 AM45 °FPassing clouds.3 mph71%29.86 "HgN/A
11:00 AM45 °FPassing clouds.1 mph66%29.86 "HgN/A
10:30 AM43 °FPassing clouds.3 mph71%29.86 "HgN/A
10:00 AM45 °FPassing clouds.2 mph66%29.86 "HgN/A
9:30 AM45 °FPassing clouds.No wind71%29.86 "HgN/A
9:00 AM43 °FPassing clouds.1 mph76%29.86 "HgN/A
8:30 AM41 °FPassing clouds.3 mph81%29.83 "HgN/A
8:00 AM41 °FPassing clouds.3 mph81%29.83 "HgN/A
7:30 AM39 °FScattered clouds.10 mph81%29.80 "HgN/A
7:00 AM37 °FScattered clouds.14 mph87%29.80 "HgN/A
6:30 AM37 °FPassing clouds.16 mph87%29.80 "HgN/A
6:00 AM39 °FPassing clouds.18 mph87%29.77 "HgN/A
5:30 AM39 °FClear.16 mph87%29.74 "Hg10 mi
5:00 AM37 °FPassing clouds.9 mph93%29.74 "HgN/A
4:30 AM37 °FPassing clouds.5 mph93%29.74 "HgN/A
4:00 AM36 °FPassing clouds.10 mph100%29.71 "HgN/A
3:00 AM36 °FPassing clouds.3 mph93%29.68 "HgN/A
2:30 AM37 °FClear.1 mph93%29.68 "Hg10 mi
2:00 AM37 °FPassing clouds.2 mph93%29.68 "HgN/A
1:00 AM39 °FPassing clouds.3 mph87%29.62 "HgN/A
12:30 AM39 °FLight rain. Passing clouds.3 mph93%29.62 "HgN/A
12:00 AM39 °FLight rain. Passing clouds.No wind93%29.62 "HgN/A
11:00 PM
Wed, Feb 10
39 °FLight rain. Passing clouds.1 mph93%29.62 "HgN/A
10:30 PM39 °FRain. Passing clouds.5 mph93%29.59 "HgN/A
10:00 PM39 °FRain. Passing clouds.8 mph87%29.59 "HgN/A
9:30 PM39 °FLight rain. Passing clouds.13 mph87%29.59 "HgN/A
9:00 PM39 °FLight rain. Passing clouds.13 mph87%29.56 "HgN/A
8:30 PM39 °FPassing clouds.20 mph87%29.56 "HgN/A
8:00 PM43 °FPartly cloudy.25 mph81%29.53 "HgN/A
7:30 PM45 °FPartly cloudy.22 mph81%29.50 "HgN/A
7:00 PM46 °FPartly cloudy.21 mph76%29.50 "HgN/A
Weather by CustomWeather, © 2016

See weather overviewHow to use our weather pages